This is the latest recevied weather packets stored in our database for station/object WJ9H. If no packets are shown the sender has not sent any weather packets the latest 10 day(s).
| Time | Temp. | Humidity | Pressure | Rain* | Wind** | Luminosity | Snow |
|---|---|---|---|---|---|---|---|
| 1777942776 | 15.56° C | - | 1000.4 hPa | 0 mm | - | - | - |
| 1777942487 | 15.56° C | - | 1000.4 hPa | 0 mm | - | - | - |
| 1777941578 | 16.11° C | - | 999.7 hPa | 0 mm | - | - | - |
| 1777941287 | 16.67° C | - | 999.7 hPa | 0 mm | - | - | - |
| 1777940978 | 16.67° C | - | 999.7 hPa | 0 mm | - | - | - |
| 1777940777 | 16.67° C | - | 999.7 hPa | 0 mm | - | - | - |
| 1777940087 | 17.22° C | - | 999.7 hPa | 0 mm | - | - | - |
| 1777939778 | 17.78° C | - | 999.7 hPa | 0 mm | - | - | - |
| 1777939277 | 18.33° C | - | 999.7 hPa | 0 mm | - | - | - |
| 1777938887 | 18.89° C | - | 999.7 hPa | 0 mm | - | - | - |
| 1777938578 | 18.89° C | - | 999.7 hPa | 0 mm | - | - | - |
| 1777938483 | 20° C | - | 999.4 hPa | 0 mm | - | - | - |
| 1777937687 | 20.56° C | - | 999.4 hPa | 0 mm | - | - | - |
| 1777936489 | 20.56° C | - | 999 hPa | 0 mm | - | - | - |
| 1777935971 | 21.11° C | - | 999 hPa | 0 mm | - | - | - |
| 1777935433 | 21.67° C | - | 998.7 hPa | 0 mm | - | - | - |
| 1777935288 | 21.11° C | - | 998.7 hPa | 0 mm | - | - | - |
| 1777934088 | 22.22° C | - | 998.3 hPa | 0 mm | - | - | - |
| 1777933777 | 22.22° C | - | 998.3 hPa | 0 mm | - | - | - |
| 1777933555 | 23.33° C | - | 998.3 hPa | 0 mm | - | - | - |
| 1777933178 | 23.33° C | - | 998.3 hPa | 0 mm | - | - | - |
| 1777932888 | 23.89° C | - | 998 hPa | 0 mm | - | - | - |
| 1777931755 | 24.44° C | - | 998 hPa | 0 mm | - | - | - |
| 1777931687 | 24.44° C | - | 998 hPa | 0 mm | - | - | - |
| 1777931160 | 10.56° C | - | 1003.4 hPa | 0 mm | - | - | - |
* Rain latest hour (hover to see other rain measurements)
** Current wind speed in m/s (hover to see current wind gust speed)